This is the latest recevied weather packets stored in our database for station/object IU1TLK-10. If no packets are shown the sender has not sent any weather packets the latest 10 day(s).
| Time | Temp. | Humidity | Pressure | Rain* | Wind** | Luminosity | Snow |
|---|---|---|---|---|---|---|---|
| 1778102320 | 12.78° C | 72% | 1012.4 hPa | - | - | - | - |
| 1778100523 | 13.33° C | 68% | 1012.2 hPa | - | - | - | - |
| 1778098723 | 13.89° C | 63% | 1011.7 hPa | - | - | - | - |
| 1778096923 | 13.89° C | 60% | 1010.8 hPa | - | - | - | - |
| 1778095123 | 13.89° C | 65% | 1010.2 hPa | - | - | - | - |
| 1778093322 | 14.44° C | 63% | 1009.9 hPa | - | - | - | - |
| 1778091522 | 15° C | 61% | 1009.2 hPa | - | - | - | - |
| 1778089722 | 15.56° C | 57% | 1008.6 hPa | - | - | - | - |
| 1778087922 | 16.11° C | 54% | 1008 hPa | - | - | - | - |
| 1778086122 | 16.67° C | 55% | 1007.8 hPa | - | - | - | - |
| 1778084322 | 16.67° C | 56% | 1007.7 hPa | - | - | - | - |
| 1778082521 | 16.67° C | 54% | 1007.6 hPa | - | - | - | - |
| 1778080721 | 17.22° C | 53% | 1007.8 hPa | - | - | - | - |
| 1778078921 | 17.22° C | 52% | 1007.7 hPa | - | - | - | - |
| 1778077121 | 16.67° C | 54% | 1007.6 hPa | - | - | - | - |
| 1778075321 | 17.78° C | 52% | 1008.2 hPa | - | - | - | - |
| 1778073521 | 17.78° C | 54% | 1008.5 hPa | - | - | - | - |
| 1778071721 | 17.78° C | 56% | 1008.6 hPa | - | - | - | - |
| 1778069920 | 17.22° C | 55% | 1008.6 hPa | - | - | - | - |
| 1778068120 | 17.22° C | 55% | 1008.8 hPa | - | - | - | - |
| 1778066320 | 17.22° C | 55% | 1009 hPa | - | - | - | - |
| 1778064520 | 17.22° C | 54% | 1009.3 hPa | - | - | - | - |
| 1778062719 | 16.67° C | 56% | 1009.6 hPa | - | - | - | - |
| 1778060919 | 15.56° C | 59% | 1009.8 hPa | - | - | - | - |
| 1778059119 | 14.44° C | 59% | 1010 hPa | - | - | - | - |
* Rain since midnight (hover to see other rain measurements)
** Current wind speed in m/s (hover to see current wind gust speed)